FENGYUN 1C DEB

Satellite information

Favourite Embed

Satellite Type and Status

DEBRISIN ORBIT

Key statistics

Satellite FENGYUN 1C DEB at a glance.

Uptime

9555

Days in orbit

Revolutions

≈ 14.1

Per day

Orbit

SSO

Sun Synchronous Orbit

Inclination

99.1

Latest

Satellite identification and parameters

Extended collection of information and parameters for FENGYUN 1C DEB.

Object identification

Identified? True

Debris? True

Object name: FENGYUN 1C DEB

International designator: 1999-025ERL

Object number (NORAD): 38163

Object ID (CCSDS): 38163

Country: PEOPLES REPUBLIC OF CHINA (PRC)

Current information (Y/N): Y

RCS size: SMALL

Orbital parameters

Period: 102.46 minutes

Inclination: 99.1429 deg

SMA: 7253.197 km

Apoapsis: 930.297 km

Periapsis: 819.827 km

RAAN: 206.4169 deg

Eccentricy: 0.0076153

Argument of periapsis: 11.4368 deg

Mean anomaly: 348.8508 deg

Mean motion: 14.05427894 rev/day

Mean motion (dot): 0.0000098 rev/day2

B* drag term: 0.00061609 1/REarth

Two-line elements (TLE)

Creation date: June 20, 2025, 6:02 p.m.

Reference frame: TEME

Reference center: EARTH

Epoch: June 20, 2025, 7:35 a.m. UTC

TLE line 0: 0 FENGYUN 1C DEB

TLE line 1: 1 38163U 99025ERL 25171.31605820 .00000980 00000-0 61609-3 0 9999

TLE line 2: 2 38163 99.1429 206.4169 0076153 11.4368 348.8508 14.05427894220778

Live tracking on map

Real-time ground track for satellite FENGYUN 1C DEB.

In-orbit conjunctions

A list of the most updated potential collisions computed for object FENGYUN 1C DEB.

Target Orbit TCA Probability of collision Miss distance Type
SL-14 DEB LEO 2024-09-26 00:16:51 0.0001239368 960.0 (m) DEBRIS

Associated space launch

Chinese polar orbiting meteorological satellite

FENGYUN 1C DEB was lifted into orbit during the mission ‘Long March 4B | Feng Yun 1C’, on board a Long March 4B space rocket.

The launch took place on May 10, 1999, 1:33 a.m. from Launch Complex 7.

For more information about the launch, click the button.

Launch to space Long March 4B | Feng Yun 1C
Long March 4B | Feng Yun 1C

Agency: N/A

Status: Launch Successful

Launch date: May 10, 1999, 1:33 a.m. UTC

Rocket: Long March 4B

Launch pad: Launch Complex 7

Location: Taiyuan Satellite Launch Center, People's Republic of China

...

Latest news about this satellite

There are no fresh news available about this satellite. Check back as we update our databases every day.


Newsletter sign-up

Weekly statistics, charts and insights to help you stay on top of the space industry.